Flag for Puerto Rico

Past Weather in San Juan, Puerto Rico — Yesterday and Last 2 Weeks

Now
81 °F

Passing clouds.


Feels Like: 87 °F
Forecast: 89 / 81 °F
Wind: 9 mph from East

Location: Luis Munoz Marin

Current Time: Jul 10, 2020 at 5:06:27 am

Latest Report: Jul 10, 2020 at 3:56 am


Visibility: 10 mi

Pressure: 30.03 "Hg

Humidity: 85%

Dew Point: 76 °F

Location of San JuanLocation

Past Weather in San Juan — Graph

°F

San Juan Temperature Yesterday

Maximum temperature yesterday: 89 °F (at 10:56 am)
Minimum temperature yesterday: 80 °F (at 4:56 am)
Average temperature yesterday: 85 °F

High & Low Weather Summary for the Past Weeks

 TemperatureHumidityPressure
High92 °F (Jul 3, 1:56 pm)94% (Jun 26, 3:56 am)30.10 "Hg (Jun 26, 3:56 am)
Low78 °F (Jul 7, 10:56 pm)57% (Jul 3, 2:56 pm)29.94 "Hg (Jun 30, 2:56 pm)
Average84 °F76%30.00 "Hg
* Reported Jun 25 2:56 am — Jul 10 2:56 am, San Juan. Weather by CustomWeather, © 2020

Note: Actual official high and low records may vary slightly from our data, if they occured in-between our weather recording intervals... More about our weather records

San Juan Weather History for the Previous 24 Hours

Scroll right to see more
 ConditionsComfort  
Time TempWeatherWind HumidityBarometerVisibility
2:56 am
Fri, Jul 10
82 °FPassing clouds.3 mph79%30.02 "Hg10 mi
1:56 am82 °FPassing clouds.5 mph79%30.02 "Hg10 mi
12:56 am82 °FClear.9 mph79%30.03 "Hg10 mi
11:56 pm
Thu, Jul 9
83 °FPassing clouds.7 mph79%30.03 "Hg10 mi
10:56 pm83 °FPassing clouds.12 mph79%30.04 "Hg10 mi
9:56 pm83 °FPassing clouds.8 mph82%30.03 "Hg10 mi
8:56 pm83 °FPassing clouds.7 mph79%30.02 "Hg10 mi
7:56 pm83 °FLight rain. Scattered clouds.10 mph79%30.01 "Hg10 mi
6:56 pm84 °FScattered clouds.13 mph77%30.00 "Hg10 mi
5:56 pm85 °FScattered clouds.16 mph75%29.99 "Hg9 mi
4:56 pm87 °FScattered clouds.16 mph72%29.98 "Hg9 mi
3:56 pm89 °FScattered clouds.16 mph65%29.99 "Hg9 mi
2:56 pm88 °FScattered clouds.17 mph67%30.00 "Hg9 mi
1:56 pm89 °FScattered clouds.22 mph63%30.01 "Hg9 mi
12:56 pm89 °FScattered clouds.15 mph63%30.03 "Hg9 mi
11:56 am89 °FScattered clouds.17 mph61%30.04 "Hg9 mi
10:56 am89 °FScattered clouds.16 mph59%30.06 "Hg9 mi
9:56 am88 °FScattered clouds.17 mph65%30.06 "Hg8 mi
8:56 am86 °FScattered clouds.13 mph70%30.06 "Hg8 mi
7:56 am84 °FScattered clouds.7 mph72%30.04 "Hg8 mi
6:56 am81 °FScattered clouds.5 mph79%30.02 "Hg8 mi
5:56 am81 °FPassing clouds.3 mph79%30.02 "Hg9 mi
Weather by CustomWeather, © 2020

See weather overview